Regional Weather Roundup
Issued by NWS Sioux Falls, SD

Home | Current Version | Previous Version | Graphics & Text | Print | Product List | Glossary On
Versions: 1 2 3 4 5 6 7 8 9 10 11 12 13 14 15 16 17 18 19 20 21 22 23 24 25 26 27 28 29 30 31 32 33 34 35 36 37 38 39 40 41 42 43 44 45 46 47 48 49 50
000
ASUS43 KFSD 242202
RWRFSD

WEATHER ROUNDUP FOR SE SOUTH DAKOTA/SW MINNESOTA/NW IOWA
NATIONAL WEATHER SERVICE SIOUX FALLS SD
500 PM CDT FRI MAR 24 2017

NOTE: "FAIR" INDICATES FEW OR NO CLOUDS BELOW 12,000 FEET WITH NO
SIGNIFICANT WEATHER AND OR OBSTRUCTIONS TO VISIBILITY.


SDZ038>040-050-052>070-242300-
SOUTHEAST SOUTH DAKOTA

CITY           SKY/WX    TMP DP  RH WIND       PRES   REMARKS
BROOKINGS      CLOUDY    38  34  85 N14       30.09F
CHAMBERLAIN    MOSUNNY   54  35  48 NE13G18   30.10S
HURON          MOSUNNY   47  36  65 NE14      30.11F
MADISON        CLOUDY    37  37 100 N18       30.08F
MITCHELL       CLOUDY    48  38  68 N17       30.10S
SIOUX FALLS    CLOUDY    42  37  82 NE18      30.06F
WINNER         FAIR      54  33  45 NE18      30.08S
YANKTON        CLOUDY    45  37  76 N21       30.05S
$$

MNZ071-072-080-081-089-090-097-098-242300-
SOUTHWEST MINNESOTA

CITY           SKY/WX    TMP DP  RH WIND       PRES   REMARKS
FAIRMONT       CLOUDY    42  38  85 N13       30.06R
JACKSON        CLOUDY    41  37  87 N17       30.04S
MARSHALL       CLOUDY    39  36  89 N16       30.11S
MONTEVIDEO     CLOUDY    43  37  81 E9        30.14S
PIPESTONE      CLOUDY    37  34  87 NE16G23   30.06S HAZE
REDWOOD FALLS  CLOUDY    41  35  79 N12G21    30.09F
TRACY          CLOUDY    40  37  90 N15G21    30.10R FOG
WINDOM         MOSUNNY   41  37  87 N16       30.06R
WORTHINGTON    CLOUDY    40  38  93 N20G25    30.05R FOG
$$

IAZ001>003-012>014-020>022-031-032-NEZ013-014-SDZ071-242300-
NORTHWEST IOWA

CITY           SKY/WX    TMP DP  RH WIND       PRES   REMARKS
CHEROKEE       CLOUDY    42  40  91 N14       30.01S
ESTHERVILLE    CLOUDY    41  39  93 N17       30.04R
LE MARS        CLOUDY    43  39  87 NE10G21   30.05R
ORANGE CITY    CLOUDY    41  39  93 NE9G18    30.04
SHELDON        CLOUDY    43  43 100 NE18G25   30.02S
SIOUX CITY     CLOUDY    43  39  86 N15       30.01F
SPENCER        CLOUDY    42  39  89 NE18      30.03S
STORM LAKE     CLOUDY    41  39  93 NE20      30.00R
$$

ABBREVIATIONS USED IN REMARKS
   TC - TEMPERATURE IN CELSIUS
  WCI - WIND CHILL INDEX
   HX - HEAT INDEX
  VSB - VISIBILITY





USA.gov is the U.S. government's official web portal to all federal, state and local government web resources and services.